Regional Weather Roundup
Issued by NWS

Home | Current Version | Previous Version | Graphics & Text | Print | Product List | Glossary Off
Versions: 1 2 3 4 5 6 7 8 9 10 11 12 13 14 15 16 17 18 19 20 21 22 23 24 25 26 27 28 29 30 31 32 33 34 35 36 37 38 39 40 41 42 43 44 45 46 47 48 49 50

000
ASUS43 KDMX 191707
RWRIA

WEATHER ROUNDUP FOR IOWA
NATIONAL WEATHER SERVICE DES MOINES IA
1200 PM CDT SUN OCT 19 2014

NOTE: "FAIR" INDICATES FEW OR NO CLOUDS BELOW 12,000 FEET WITH NO
SIGNIFICANT WEATHER AND/OR OBSTRUCTIONS TO VISIBILITY.

* - THESE STATIONS ARE NOT NWS STATIONS...THUS NOT UNDER NWS
QUALITY CONTROL.  THEY ALSO DO NOT REPORT WEATHER SUCH
AS PRECIPITATION OR FOG.

IAZ001>003-012>014-020>022-031>034-043>046-191800-
   NORTHWEST IOWA

CITY           SKY/WX    TMP DP  RH WIND       PRES   REMARKS
CARROLL *      SUNNY     61  45  55 SW15G26   30.01S
CHEROKEE *     PTSUNNY   59  46  63 SW21G29   29.97F
DENISON *      SUNNY     61  43  51 SW17G26   29.99F
LE MARS *      SUNNY     63  45  51 SW20      29.95F
ORANGE CITY *  SUNNY     63  43  48 W18G25    29.94F
SHELDON *      SUNNY     61  45  55 SW20      29.93F
SIOUX CITY     MOSUNNY   65  44  46 SW10G22   29.98F
SPENCER        MOSUNNY   61  43  51 SW21G28   29.95S
STORM LAKE *   SUNNY     61  43  51 SW22G35   29.97F
$$

IAZ055>058-069>071-079>083-090>094-191800-
   SOUTHWEST IOWA

CITY           SKY/WX    TMP DP  RH WIND       PRES   REMARKS
ATLANTIC *     SUNNY     61  46  59 SW18G26   30.04F
AUDUBON *      SUNNY     63  45  51 SW16G26   30.04F
CLARINDA *     SUNNY     63  48  59 SW14G20   30.09F
COUNCIL BLFS * SUNNY     61  48  63 SW15      30.03F
HARLAN  *      SUNNY     61  46  59 SW21G28   30.06F
LAMONI         SUNNY     59  45  59 SW18      30.11F
$$

IAZ047>049-059>061-072>074-084-191800-
   CENTRAL IOWA

CITY           SKY/WX    TMP DP  RH WIND       PRES   REMARKS
AMES           MOSUNNY   60  45  57 SW16G26   30.04F
ANKENY *       SUNNY     59  46  63 SW13G25   30.06F
CHARITON *     SUNNY     57  45  62 SW15G26   30.09F
DES MOINES     MOSUNNY   60  45  57 SW20      30.06F
GRINNELL*      MOSUNNY   57  45  62 SW17G24   30.07F
KNOXVILLE *    SUNNY     59  45  58 SW21G26   30.07F
MARSHALLTOWN   CLOUDY    56  44  64 SW18G25   30.05F
PELLA *        SUNNY     59  46  63 SW12G17   30.09F
PERRY *          N/A     61  45  55 SW18G25   30.03F
$$

IAZ004>006-015-016-023>025-035-036-191800-
   NORTH CENTRAL IOWA

CITY           SKY/WX    TMP DP  RH WIND       PRES   REMARKS
ALGONA *       SUNNY     61  46  59 SW20G26   29.96F
CLARION *      SUNNY     57  46  67 SW18G25   30.00S
ESTHERVILLE    MOSUNNY   61  43  51 SW24G36   29.92F
FORT DODGE *   PTSUNNY   57  45  62 SW16      30.00F
MASON CITY     PTSUNNY   57  45  64 SW23G31   29.98F
FOREST CITY *  SUNNY     57  45  62 SW17G26   29.96F
IOWA FALLS *     N/A     57  45  62 SW16      30.03F
$$

IAZ007>011-017>019-026>030-037>042-050>054-066-191800-
   NORTHEAST IOWA

CITY           SKY/WX    TMP DP  RH WIND       PRES   REMARKS
CEDAR RAPIDS   MOSUNNY   55  45  68 S16       30.09F
CHARLES CITY * SUNNY     54  45  71 S16       30.01F
CLINTON *      SUNNY     54  43  66 SW15      30.16F
DECORAH *      SUNNY     54  43  66 SW14G24   30.00F
DUBUQUE        MOSUNNY   53  43  68 SW18      30.09F
MONTICELLO *   SUNNY     55  45  67 S13G18    30.09F
OELWEIN *      SUNNY     55  45  67 SW18G24   30.05F
WATERLOO       PTSUNNY   55  44  66 SW17      30.05F
$$

IAZ064-065-067-068-078-191800-
   EAST CENTRAL IOWA

CITY           SKY/WX    TMP DP  RH WIND       PRES   REMARKS
DAVENPORT      SUNNY     55  42  61 SW14      30.14F
IOWA CITY      MOSUNNY   56  45  66 SW13G20   30.12F
MT. PLEASANT * SUNNY     57  43  58 SW12G18   30.15F
MUSCATINE *    SUNNY     57  45  62 SW15      30.14F
QUAD CITIES    SUNNY     56  43  61 SW10G18   30.14F
$$

IAZ062-063-075>077-085>089-095>099-191800-
   SOUTHEAST IOWA

CITY           SKY/WX    TMP DP  RH WIND       PRES   REMARKS
BURLINGTON     SUNNY     57  45  64 SW15      30.15F
FAIRFIELD *    SUNNY     59  43  55 SW15G22   30.13F
FORT MADISON * SUNNY     59  46  63 S10       30.17F
KEOKUK *       SUNNY     57  46  67 SW10      30.16F
OSKALOOSA *      N/A     59  45  58 SW17      30.10F
CENTERVILLE *  SUNNY     59  45  58 S16       30.13F
OTTUMWA        SUNNY     59  44  57 S16G22    30.10F
WASHINGTON *   SUNNY     57  46  67 S14       30.12F
$$

ABBREVIATIONS USED IN REMARKS
   TC - TEMPERATURES IN CELSIUS
  WCI - WIND CHILL INDEX
   HX - HEAT INDEX
  VSB - VISIBILITY
$$




USA.gov is the U.S. government's official web portal to all federal, state and local government web resources and services.